Regional Weather Roundup
Issued by NWS Goodland, KS

Home | Current Version | Previous Version | Text Only | Print | Product List | Glossary Off
Versions: 1 2 3 4 5 6 7 8 9 10 11 12 13 14 15 16 17 18 19 20 21 22 23 24 25 26 27 28 29 30 31 32 33 34 35 36 37 38 39 40 41 42 43 44 45 46 47 48 49 50

000
ASUS43 KGLD 181208
RWRGLD

GOODLAND FORECAST AREA HOURLY WEATHER ROUNDUP
NATIONAL WEATHER SERVICE GOODLAND KS
500 AM MST THU DEC 18 2014

...OFFICIAL OBSERVATIONS...

CITY           SKY/WX    TMP DP  RH WIND       PRES   REMARKS
GOODLAND KS    MOCLDY    10   7  87 S3        30.04R
HILL CITY KS   CLOUDY    26  24  92 E5        30.13S
IMPERIAL NEB   CLOUDY    25  22  88 W7        30.05S
MCCOOK NEB     CLOUDY    23  21  92 CALM      30.10R FOG
AKRON CO       PTCLDY    20  18  92 W13       29.99R FOG     WCI   7
BURLINGTON CO  FOG       20  18  92 SW6       30.01R VSB 1/4
LIMON CO       MOCLDY    21  19  92 N5        29.99S
$$

...UNOFFICIAL OBSERVATIONS...

CITY           SKY/WX    TMP DP  RH WIND       PRES   REMARKS
GOVE KS          N/A     28  32 100 MISG        N/A
SHARON SPRINGS   N/A     26  25  95 CALM        N/A
TRIBUNE KS     CLOUDY    28  28 100 NW3       30.07R VSB 1/2
KIT CARSON CO    N/A     21  19  93 MISG        N/A
$$


USA.gov is the U.S. government's official web portal to all federal, state and local government web resources and services.